7 * 24
多渠道服务支持
COSMOS 1748(宇宙1748)是苏联解体后独联体(CIS)继承航天项目框架下发射的卫星,于1986年6月6日格林尼治标准时间9时点火升空。它隶属于苏联“宇宙”系列卫星家族,该系列涵盖技术试验、空间环境探测、军事侦察等多重任务。作为冷战末期航天活动产物,这颗卫星延续了苏联宇宙系列持续推进空间探索的路线,为独联体后续航天技术积累提供了数据支撑,后续已完成既定任务再入大气层销毁。
俄罗斯(独联体)
(CIS)
| 数据来源 | 国际轨道数据 |
| 星历时间: | 2026-09-13T20:02:04+0800 19小时前 查看轨道信息 |
| 半长轴: | 7839.332km |
| 偏心率: | 0.0010984 |
| 轨道倾角: | 74.020° |
| 近地点辐角 | 317.544° |
| 升交点赤经 | 176.292° |
| 平近点角 | 156.030° |
| 近地点: | 1452.584km |
| 远地点: | 1469.806km |
| 周期: | 115.127分钟 |
| 每日圈数: | 12.507894 |
| 事件ID | 空间交会对象 | 最接近时刻(TCA) | 交会距离 | 交会风险概率(CRP) | 交会风险指数(CRI) | 操作 |
|---|---|---|---|---|---|---|
| CDM_260915-154200-668201-675825 |
COSMOS 571
(6682)
COSMOS 1748
(16758) | 2026-09-15T 15:42:19+0000 |
2.341 km
极远距离 | 9.587398E-7 极低风险 | 0.35 |